Change the Weather History Date:

Wednesday, February 19, 2014

  Actual Average (KMKO) Record (KMKO)
Temperature  
Mean Temperature 54 °F -  
Max Temperature 66 °F 53 °F 72 °F (2011)
Min Temperature 41 °F 33 °F 19 °F (2006)
Degree Days  
Heating Degree Days 12    
Growing Degree Days 4 (Base 50)    
Moisture  
Dew Point 45 °F    
Average Humidity 69    
Maximum Humidity 99    
Minimum Humidity 41    
Precipitation  
Precipitation 0.01 in - - ()
Sea Level Pressure  
Sea Level Pressure 29.82 in    
Wind  
Wind Speed 10 mph (ESE)    
Max Wind Speed 20 mph    
Max Gust Speed 29 mph    
Visibility 9 miles    
Events Rain    
Averages and records for this station are not official NWS values.
T = Trace of Precipitation, MM = Missing Value Source: NWS Daily Summary

Daily Weather History Graph

Daily Weather History Graph

Search for Another Location

Airport or City:

Trip Planner

Search our weather history database for the weather conditions in past years. The results will help you decide how hot, cold, wet, or windy it might be!

Date:

Astronomy

Feb. 19, 2014 Rise Set
Actual Time 7:06 AM CST 6:09 PM CST
Civil Twilight 6:40 AM CST 6:35 PM CST
Nautical Twilight 6:10 AM CST 7:05 PM CST
Astronomical Twilight 5:40 AM CST 7:35 PM CST
Moon 10:52 PM CST (2/19) 9:22 AM CST (2/19)
Length of Visible Light 11h 55m
Length of Day
11h 03m
Waning Gibbous, 79% of the Moon is Illuminated
Feb 19
Waning Gibbous
Feb 22
Last Quarter
Mar 1
New
Mar 8
First Quarter
Mar 16
Full

Hourly Weather History & Observations

Time (CST) Temp. Windchill Dew Point Humidity Pressure Visibility Wind Dir Wind Speed Gust Speed Precip Events Conditions
12:15 AM 47.7 °F - 34.2 °F 60% 29.94 in 10.0 mi North 9.2 mph - N/A   Clear
12:35 AM 54.1 °F - 31.8 °F 43% 29.93 in 10.0 mi North 15.0 mph 20.7 mph N/A   Clear
12:55 AM 53.1 °F - 30.9 °F 43% 29.94 in 10.0 mi NNE 9.2 mph - N/A   Clear
1:15 AM 51.8 °F - 30.6 °F 44% 29.96 in 10.0 mi North 11.5 mph 17.3 mph N/A   Clear
1:35 AM 48.2 °F - 30.2 °F 50% 29.97 in 10.0 mi NNE 8.1 mph - N/A   Clear
1:55 AM 46.6 °F - 29.7 °F 52% 29.97 in 10.0 mi NNE 6.9 mph - N/A   Clear
2:15 AM 45.9 °F 41.7 °F 29.8 °F 54% 29.96 in 10.0 mi NE 8.1 mph - N/A   Clear
2:35 AM 46.0 °F 43.1 °F 29.5 °F 52% 29.98 in 10.0 mi North 5.8 mph - N/A   Clear
2:55 AM 46.0 °F 41.9 °F 30.0 °F 54% 29.98 in 10.0 mi NNE 8.1 mph - N/A   Clear
3:15 AM 45.5 °F 42.5 °F 30.2 °F 55% 29.98 in 10.0 mi NNE 5.8 mph - N/A   Clear
3:35 AM 45.9 °F 41.7 °F 30.6 °F 55% 29.97 in 10.0 mi NNE 8.1 mph - N/A   Clear
3:55 AM 44.4 °F 40.5 °F 30.2 °F 57% 29.97 in 10.0 mi NE 6.9 mph - N/A   Clear
4:15 AM 43.9 °F 38.8 °F 30.4 °F 59% 29.96 in 10.0 mi NNE 9.2 mph - N/A   Clear
4:35 AM 43.7 °F 38.6 °F 30.2 °F 59% 29.96 in 10.0 mi NE 9.2 mph - N/A   Clear
4:55 AM 41.9 °F 37.5 °F 30.2 °F 63% 29.96 in 10.0 mi NNE 6.9 mph - N/A   Clear
5:15 AM 42.1 °F 37.7 °F 30.2 °F 63% 29.96 in 10.0 mi NE 6.9 mph - N/A   Clear
5:35 AM 41.4 °F 36.2 °F 30.2 °F 65% 29.96 in 10.0 mi NNE 8.1 mph - N/A   Clear
5:55 AM 42.6 °F 37.2 °F 30.7 °F 63% 29.96 in 10.0 mi NNE 9.2 mph - N/A   Clear
6:15 AM 45.1 °F 40.8 °F 31.1 °F 58% 29.96 in 10.0 mi NE 8.1 mph - N/A   Clear
6:35 AM 44.2 °F 41.0 °F 30.4 °F 58% 29.96 in 10.0 mi SSE 5.8 mph - N/A   Clear
6:55 AM 42.3 °F 39.4 °F 30.9 °F 64% 29.97 in 10.0 mi South 4.6 mph - N/A   Clear
7:15 AM 42.6 °F 40.9 °F 30.2 °F 61% 29.97 in 10.0 mi NE 3.5 mph - N/A   Clear
7:35 AM 43.2 °F - 30.2 °F 60% 29.97 in 10.0 mi Calm Calm - N/A   Clear
7:55 AM 42.3 °F 39.4 °F 31.8 °F 67% 29.96 in 10.0 mi NNE 4.6 mph - N/A   Clear
8:15 AM 44.4 °F 39.5 °F 31.6 °F 61% 29.93 in 10.0 mi ENE 9.2 mph - N/A   Clear
8:35 AM 45.5 °F 42.5 °F 32.0 °F 59% 29.93 in 10.0 mi ESE 5.8 mph - N/A   Clear
8:55 AM 47.3 °F - 32.0 °F 55% 29.95 in 10.0 mi South 5.8 mph - N/A   Clear
9:15 AM 48.7 °F - 32.2 °F 53% 29.94 in 10.0 mi East 4.6 mph - N/A   Clear
9:35 AM 51.6 °F - 32.4 °F 48% 29.94 in 10.0 mi East 6.9 mph - N/A   Clear
9:55 AM 53.4 °F - 32.9 °F 46% 29.92 in 10.0 mi East 8.1 mph 19.6 mph N/A   Clear
10:15 AM 56.1 °F - 33.8 °F 43% 29.92 in 10.0 mi SE 12.7 mph 24.2 mph N/A   Clear
10:35 AM 57.9 °F - 35.8 °F 44% 29.92 in 10.0 mi ESE 13.8 mph 25.3 mph N/A   Clear
10:55 AM 59.0 °F - 36.7 °F 43% 29.91 in 10.0 mi ESE 8.1 mph 16.1 mph N/A   Scattered Clouds
11:15 AM 62.4 °F - 38.1 °F 41% 29.90 in 10.0 mi ESE 8.1 mph 18.4 mph N/A   Mostly Cloudy
11:35 AM 64.2 °F - 40.8 °F 42% 29.88 in 10.0 mi ESE 13.8 mph 20.7 mph N/A   Clear
11:55 AM 63.9 °F - 43.3 °F 47% 29.86 in 10.0 mi SSE 13.8 mph 23.0 mph N/A   Mostly Cloudy
12:15 PM 63.9 °F - 46.0 °F 52% 29.85 in 10.0 mi SSE 17.3 mph 24.2 mph N/A   Overcast
12:35 PM 64.2 °F - 47.5 °F 55% 29.83 in 10.0 mi SSE 16.1 mph 24.2 mph N/A   Overcast
12:55 PM 64.8 °F - 49.1 °F 57% 29.81 in 10.0 mi SE 18.4 mph 24.2 mph N/A   Overcast
1:15 PM 65.8 °F - 51.1 °F 59% 29.80 in 10.0 mi SE 15.0 mph 20.7 mph N/A   Overcast
1:35 PM 65.5 °F - 52.0 °F 62% 29.78 in 10.0 mi SSE 13.8 mph 24.2 mph N/A   Overcast
1:55 PM 65.3 °F - 53.1 °F 65% 29.76 in 10.0 mi SSE 19.6 mph 23.0 mph N/A   Overcast
2:15 PM 66.2 °F - 54.7 °F 66% 29.74 in 10.0 mi SE 18.4 mph 24.2 mph N/A   Overcast
2:35 PM 66.2 °F - 56.3 °F 70% 29.73 in 10.0 mi SSE 17.3 mph 24.2 mph N/A   Overcast
2:55 PM 65.7 °F - 57.7 °F 76% 29.72 in 10.0 mi SSE 17.3 mph 26.5 mph N/A   Overcast
3:15 PM 64.8 °F - 57.7 °F 78% 29.72 in 10.0 mi SSE 16.1 mph 25.3 mph N/A   Overcast
3:35 PM 64.4 °F - 58.1 °F 80% 29.71 in 10.0 mi SSE 11.5 mph 28.8 mph N/A   Overcast
3:55 PM 63.5 °F - 58.1 °F 83% 29.70 in 10.0 mi SSE 16.1 mph 24.2 mph N/A   Overcast
4:15 PM 62.8 °F - 58.6 °F 86% 29.70 in 7.0 mi SSE 19.6 mph 27.6 mph N/A   Overcast
4:35 PM 61.3 °F - 59.9 °F 95% 29.69 in 2.5 mi SSE 13.8 mph 25.3 mph N/A Rain Rain
4:55 PM 61.0 °F - 59.9 °F 96% 29.68 in 4.0 mi SE 10.4 mph 19.6 mph N/A   Overcast
5:15 PM 61.0 °F - 60.1 °F 97% 29.68 in 2.5 mi SE 11.5 mph 19.6 mph N/A Rain Light Rain
5:35 PM 60.8 °F - 60.3 °F 98% 29.67 in 2.0 mi SE 12.7 mph 19.6 mph N/A Rain Rain
5:55 PM 60.8 °F - 60.1 °F 97% 29.67 in 1.8 mi SE 13.8 mph 18.4 mph N/A Rain Light Rain
6:15 PM 60.8 °F - 60.1 °F 97% 29.66 in 3.0 mi SE 11.5 mph 17.3 mph N/A Rain Light Rain
6:35 PM 61.0 °F - 60.6 °F 99% 29.66 in 4.0 mi North - - N/A Rain Light Rain
6:55 PM 61.3 °F - 60.8 °F 98% 29.66 in 7.0 mi South 17.3 mph 23.0 mph 0.01 in   Light Drizzle
7:15 PM 61.5 °F - 60.6 °F 97% 29.65 in 7.0 mi South 18.4 mph 26.5 mph N/A   Overcast
7:35 PM 61.9 °F - 60.3 °F 94% 29.64 in 7.0 mi South 13.8 mph 23.0 mph N/A   Overcast
7:55 PM 62.1 °F - 60.1 °F 93% 29.66 in 7.0 mi SSW 13.8 mph 19.6 mph N/A   Overcast
8:15 PM 61.9 °F - 59.9 °F 93% 29.65 in 7.0 mi South 9.2 mph 19.6 mph N/A   Overcast
8:35 PM 61.7 °F - 59.9 °F 94% 29.64 in 7.0 mi South 10.4 mph 19.6 mph N/A   Overcast
8:55 PM 61.7 °F - 59.5 °F 93% 29.64 in 10.0 mi South 6.9 mph 17.3 mph N/A   Overcast
9:15 PM 61.3 °F - 59.2 °F 93% 29.64 in 10.0 mi SSE 6.9 mph - N/A   Overcast
9:35 PM 60.8 °F - 59.0 °F 94% 29.63 in 10.0 mi SE 9.2 mph - N/A   Overcast
9:55 PM 60.4 °F - 58.5 °F 93% 29.62 in 10.0 mi SE 10.4 mph - N/A   Scattered Clouds
10:35 PM 61.2 °F - 58.3 °F 90% 29.60 in 10.0 mi SSE 12.7 mph 18.4 mph N/A   Clear
10:55 PM 61.5 °F - 58.3 °F 89% 29.60 in 10.0 mi SSE 9.2 mph 21.9 mph N/A   Clear
11:15 PM 61.2 °F - 58.1 °F 90% 29.58 in 10.0 mi SSE 11.5 mph 17.3 mph N/A   Mostly Cloudy
11:35 PM 61.3 °F - 58.1 °F 89% 29.57 in 10.0 mi SSE 12.7 mph 21.9 mph N/A   Overcast
11:55 PM 61.7 °F - 58.3 °F 89% 29.56 in 10.0 mi SSE 15.0 mph 21.9 mph N/A   Overcast